This is the latest recevied weather packets stored in our database for station/object KB0RPJ. If no packets are shown the sender has not sent any weather packets the latest 10 day(s).
| Time | Temp. | Humidity | Pressure | Rain* | Wind** | Luminosity | Snow |
|---|---|---|---|---|---|---|---|
| 1778089806 | 12.78° C | 39% | 1018.5 hPa | 0 mm | - | 584 W/m² | - |
| 1778089517 | 12.78° C | 40% | 1018.7 hPa | 0 mm | - | 664 W/m² | - |
| 1778089205 | 12.22° C | 40% | 1018.7 hPa | 0 mm | - | 762 W/m² | - |
| 1778088905 | 12.22° C | 38% | 1018.9 hPa | 0 mm | - | 517 W/m² | - |
| 1778088606 | 12.22° C | 38% | 1018.9 hPa | 0 mm | - | 466 W/m² | - |
| 1778088318 | 12.22° C | 39% | 1018.8 hPa | 0 mm | - | 501 W/m² | - |
| 1778088005 | 12.22° C | 40% | 1018.8 hPa | 0 mm | - | 449 W/m² | - |
| 1778087717 | 12.78° C | 38% | 1018.7 hPa | 0 mm | - | 515 W/m² | - |
| 1778087405 | 12.22° C | 40% | 1018.7 hPa | 0 mm | - | 490 W/m² | - |
| 1778087106 | 12.22° C | 39% | 1018.8 hPa | 0 mm | - | 639 W/m² | - |
| 1778086804 | 12.22° C | 40% | 1018.8 hPa | 0 mm | - | 895 W/m² | - |
| 1778086506 | 12.22° C | 41% | 1018.8 hPa | 0 mm | - | 808 W/m² | - |
| 1778086208 | 12.22° C | 36% | 1018.8 hPa | 0 mm | - | 633 W/m² | - |
| 1778085905 | 12.22° C | 38% | 1018.9 hPa | 0 mm | - | 637 W/m² | - |
| 1778085605 | 11.67° C | 40% | 1018.9 hPa | 0 mm | - | 689 W/m² | - |
| 1778085304 | 11.67° C | 36% | 1018.9 hPa | 0 mm | - | 668 W/m² | - |
| 1778085005 | 12.22° C | 41% | 1019 hPa | 0 mm | - | 625 W/m² | - |
| 1778084704 | 11.67° C | 40% | 1018.9 hPa | 0 mm | - | 571 W/m² | - |
| 1778084405 | 11.67° C | 39% | 1018.9 hPa | 0 mm | - | 588 W/m² | - |
| 1778084105 | 11.67° C | 42% | 1018.8 hPa | 0 mm | - | 629 W/m² | - |
| 1778083805 | 12.22° C | 38% | 1018.8 hPa | 0 mm | - | 633 W/m² | - |
| 1778083505 | 12.22° C | 42% | 1018.7 hPa | 0 mm | - | 609 W/m² | - |
| 1778083204 | 12.22° C | 41% | 1018.6 hPa | 0 mm | - | 635 W/m² | - |
| 1778082904 | 11.67° C | 45% | 1018.5 hPa | 0 mm | - | 671 W/m² | - |
| 1778082605 | 11.67° C | 42% | 1018.4 hPa | 0 mm | - | 634 W/m² | - |
* Rain latest hour (hover to see other rain measurements)
** Current wind speed in m/s (hover to see current wind gust speed)